H1 CPF 2 NER 2024 4 23 9 114 01 glonass147 H2 2311401 9147 57517 2024 4 23 0 0 0 2024 4 26 23 45 0 900 1 1 0 0 0 1 H9 10 0 60423 0.00000 0 1932745.536 21482065.801 -13613997.620 10 0 60423 900.00000 0 1291783.855 19757150.468 -16073198.587 10 0 60423 1800.00000 0 391477.934 17834012.288 -18219979.755 10 0 60423 2700.00000 0 -776398.552 15776306.576 -20012480.931 10 0 60423 3600.00000 0 -2207478.319 13650017.988 -21415708.931 10 0 60423 4500.00000 0 -3884731.221 11520800.714 -22402229.626 10 0 60423 5400.00000 0 -5778936.319 9451347.459 -22952713.304 10 0 60423 6300.00000 0 -7849677.598 7498897.482 -23056322.054 10 0 60423 7200.00000 0 -10046823.451 5712988.297 -22710930.873 10 0 60423 8100.00000 0 -12312429.396 4133545.372 -21923177.562 10 0 60423 9000.00000 0 -14582985.434 2789390.004 -20708339.738 10 0 60423 9900.00000 0 -16791914.425 1697227.899 -19090040.861 10 0 60423 10800.00000 0 -18872217.017 861160.594 -17099790.561 10 0 60423 11700.00000 0 -20759152.037 272739.634 -14776368.015 10 0 60423 12600.00000 0 -22392839.447 -88439.760 -12165060.487 10 0 60423 13500.00000 0 -23720676.030 -253631.831 -9316772.202 10 0 60423 14400.00000 0 -24699461.769 -263368.612 -6287021.596 10 0 60423 15300.00000 0 -25297147.150 -165491.636 -3134847.446 10 0 60423 16200.00000 0 -25494127.811 -12872.299 78353.614 10 0 60423 17100.00000 0 -25284032.361 139080.714 3290034.276 10 0 60423 18000.00000 0 -24673970.933 235019.548 6437723.613 10 0 60423 18900.00000 0 -23684235.060 222249.306 9460248.977 10 0 60423 19800.00000 0 -22347462.871 53203.280 12298928.118 10 0 60423 20700.00000 0 -20707306.128 -312304.153 14898707.852 10 0 60423 21600.00000 0 -18816656.487 -905142.485 17209227.138 10 0 60423 22500.00000 0 -16735506.506 -1745329.457 19185784.419 10 0 60423 23400.00000 0 -14528535.717 -2840959.269 20790191.329 10 0 60423 24300.00000 0 -12262522.953 -4187639.206 21991497.516 10 0 60423 25200.00000 0 -10003692.556 -5768457.979 22766574.040 10 0 60423 26100.00000 0 -7815104.234 -7554486.838 23100545.611 10 0 60423 27000.00000 0 -5754193.831 -9505792.614 22987064.824 10 0 60423 27900.00000 0 -3870565.485 -11572920.833 22428424.324 10 0 60423 28800.00000 0 -2204125.018 -13698787.895 21435505.656 10 0 60423 29700.00000 0 -783630.088 -15820904.641 20027566.254 10 0 60423 30600.00000 0 374284.577 -17873840.180 18231868.702 10 0 60423 31500.00000 0 1265567.943 -19791824.905 16083159.019 10 0 60423 32400.00000 0 1898681.610 -21511385.850 13623003.256 10 0 60423 33300.00000 0 2294000.841 -22973905.936 10898994.175 10 0 60423 34200.00000 0 2482713.292 -24128001.447 7963842.162 10 0 60423 35100.00000 0 2505261.763 -24931619.151 4874366.725 10 0 60423 36000.00000 0 2409396.309 -25353765.689 1690406.958 10 0 60423 36900.00000 0 2247917.389 -25375796.607 -1526328.850 10 0 60423 37800.00000 0 2076204.932 -24992210.438 -4713452.878 10 0 60423 38700.00000 0 1949637.386 -24210913.502 -7809104.095 10 0 60423 39600.00000 0 1921009.893 -23052943.082 -10753147.919 10 0 60423 40500.00000 0 2038061.067 -21551659.167 -13488345.889 10 0 60423 41400.00000 0 2341213.707 -19751437.235 -15961472.308 10 0 60423 42300.00000 0 2861626.114 -17705915.572 -18124355.709 10 0 60423 43200.00000 0 3619637.831 -15475869.422 -19934824.360 10 0 60423 44100.00000 0 4623677.287 -13126800.094 -21357536.803 10 0 60423 45000.00000 0 5869679.425 -10726339.356 -22364680.602 10 0 60423 45900.00000 0 7341039.996 -8341577.292 -22936525.037 10 0 60423 46800.00000 0 9009110.548 -6036425.251 -23061816.277 10 0 60423 47700.00000 0 10834215.198 -3869124.183 -22738006.648 10 0 60423 48600.00000 0 12767148.098 -1890002.630 -21971312.828 10 0 60423 49500.00000 0 14751089.966 -139578.255 -20776601.191 10 0 60423 50400.00000 0 16723863.977 1352917.673 -19177101.967 10 0 60423 51300.00000 0 18620436.650 2570531.229 -17203957.382 10 0 60423 52200.00000 0 20375558.624 3509051.231 -14895612.341 10 0 60423 53100.00000 0 21926433.904 4176930.387 -12297059.612 10 0 60423 54000.00000 0 23215304.724 4594666.780 -9458954.553 10 0 60423 54900.00000 0 24191842.579 4793673.345 -6436617.294 10 0 60423 55800.00000 0 24815244.114 4814684.942 -3288942.777 10 0 60423 56700.00000 0 25055943.188 4705772.352 -77241.077 10 0 60423 57600.00000 0 24896866.897 4520049.343 3135968.158 10 0 60423 58500.00000 0 24334182.916 4313171.806 6288182.325 10 0 60423 59400.00000 0 23377507.344 4140736.640 9318138.548 10 0 60423 60300.00000 0 22049565.265 4055691.852 12167007.760 10 0 60423 61200.00000 0 20385319.470 4105868.430 14779536.455 10 0 60423 62100.00000 0 18430605.104 4331738.793 17105113.888 10 0 60423 63000.00000 0 16240328.575 4764496.500 19098744.474 10 0 60423 63900.00000 0 13876306.894 5424537.864 20721907.364 10 0 60423 64800.00000 0 11404838.068 6320408.831 21943287.815 10 0 60423 65700.00000 0 8894103.719 7448260.782 22739367.669 10 0 60423 66600.00000 0 6411511.400 8791837.549 23094865.084 10 0 60423 67500.00000 0 4021085.916 10322993.911 23003016.517 10 0 60423 68400.00000 0 1781016.359 12002723.973 22465696.789 10 0 60423 69300.00000 0 -258541.208 13782656.887 21493375.823 10 0 60423 70200.00000 0 -2057316.282 15606958.362 20104913.413 10 0 60423 71100.00000 0 -3586356.809 17414559.797 18327196.005 10 0 60423 72000.00000 0 -4828984.722 19141623.437 16194622.122 10 0 60423 72900.00000 0 -5781235.968 20724142.138 13748445.607 10 0 60423 73800.00000 0 -6451767.913 22100566.631 11035988.292 10 0 60423 74700.00000 0 -6861238.776 23214351.622 8109736.159 10 0 60423 75600.00000 0 -7041185.525 24016315.094 5026335.226 10 0 60423 76500.00000 0 -7032447.376 24466712.401 1845505.442 10 0 60423 77400.00000 0 -6883201.041 24536938.136 -1371107.295 10 0 60423 78300.00000 0 -6646690.172 24210783.816 -4561119.477 10 0 60423 79200.00000 0 -6378744.550 23485197.601 -7662616.077 10 0 60423 80100.00000 0 -6135193.623 22370512.800 -10615351.127 10 0 60423 81000.00000 0 -5969283.820 20890133.976 -13361919.400 10 0 60423 81900.00000 0 -5929209.251 19079692.146 -15848876.174 10 0 60423 82800.00000 0 -6055860.966 16985702.810 -18027782.842 10 0 60423 83700.00000 0 -6380891.003 14663781.546 -19856157.516 10 0 60423 84600.00000 0 -6925174.485 12176490.550 -21298311.541 10 0 60423 85500.00000 0 -7697736.329 9590905.223 -22326054.947 10 0 60424 0.00000 0 -8695189.598 6976002.044 -22919256.433 10 0 60424 900.00000 0 -9901711.605 4399975.027 -23066246.510 10 0 60424 1800.00000 0 -11289559.176 1927596.153 -22764054.558 10 0 60424 2700.00000 0 -12820104.712 -382274.657 -22018475.561 10 0 60424 3600.00000 0 -14445349.485 -2478922.516 -20843963.671 10 0 60424 4500.00000 0 -16109851.821 -4321661.526 -19263354.515 10 0 60424 5400.00000 0 -17752989.455 -5881290.826 -17307421.167 10 0 60424 6300.00000 0 -19311460.864 -7141062.154 -15014272.187 10 0 60424 7200.00000 0 -20721919.923 -8097119.040 -12428603.531 10 0 60424 8100.00000 0 -21923632.249 -8758390.267 -9600819.202 10 0 60424 9000.00000 0 -22861040.515 -9145943.561 -6586038.440 10 0 60424 9900.00000 0 -23486129.715 -9291828.525 -3443009.730 10 0 60424 10800.00000 0 -23760491.945 -9237459.693 -232953.958 10 0 60424 11700.00000 0 -23657003.153 -9031610.188 2981639.499 10 0 60424 12600.00000 0 -23161041.006 -8728102.973 6138238.946 10 0 60424 13500.00000 0 -22271192.809 -8383299.313 9175493.811 10 0 60424 14400.00000 0 -20999424.224 -8053492.366 12034430.655 10 0 60424 15300.00000 0 -19370702.528 -7792317.319 14659597.958 10 0 60424 16200.00000 0 -17422091.226 -7648288.238 17000137.378 10 0 60424 17100.00000 0 -15201354.863 -7662565.817 19010761.140 10 0 60424 18000.00000 0 -12765133.236 -7867049.897 20652617.412 10 0 60424 18900.00000 0 -10176761.635 -8282876.448 21894028.173 10 0 60424 19800.00000 0 -7503827.944 -8919381.445 22711086.754 10 0 60424 20700.00000 0 -4815567.774 -9773574.274 23088105.047 10 0 60424 21600.00000 0 -2180204.799 -10830142.119 23017903.272 10 0 60424 22500.00000 0 337654.798 -12061984.722 22501937.961 10 0 60424 23400.00000 0 2679467.479 -13431257.160 21550266.636 10 0 60424 24300.00000 0 4794937.764 -14890877.465 20181350.385 10 0 60424 25200.00000 0 6643855.310 -16386436.874 18421698.201 10 0 60424 26100.00000 0 8197509.321 -17858433.995 16305359.559 10 0 60424 27000.00000 0 9439623.268 -19244740.799 13873274.299 10 0 60424 27900.00000 0 10366772.356 -20483198.620 11172491.313 10 0 60424 28800.00000 0 10988267.355 -21514236.698 8255269.961 10 0 60424 29700.00000 0 11325510.237 -22283404.492 5178080.382 10 0 60424 30600.00000 0 11410848.880 -22743712.109 2000520.869 10 0 60424 31500.00000 0 11285978.869 -22857680.692 -1215827.642 10 0 60424 32400.00000 0 10999959.385 -22599016.195 -4408588.527 10 0 60424 33300.00000 0 10606926.484 -21953835.312 -7515795.295 10 0 60424 34200.00000 0 10163599.964 -20921390.672 -10477093.036 10 0 60424 35100.00000 0 9726689.025 -19514263.148 -13234912.100 10 0 60424 36000.00000 0 9350306.442 -17758011.327 -15735590.941 10 0 60424 36900.00000 0 9083501.007 -15690290.906 -17930425.838 10 0 60424 37800.00000 0 8968013.211 -13359479.059 -19776626.561 10 0 60424 38700.00000 0 9036350.058 -10822859.686 -21238158.791 10 0 60424 39600.00000 0 9310261.558 -8144444.063 -22286456.247 10 0 60424 40500.00000 0 9799684.687 -5392516.864 -22900987.982 10 0 60424 41400.00000 0 10502200.878 -2637009.268 -23069669.128 10 0 60424 42300.00000 0 11403031.458 53191.659 -22789106.396 10 0 60424 43200.00000 0 12475572.591 2612885.233 -22064672.854 10 0 60424 44100.00000 0 13682448.378 4983040.869 -20910409.878 10 0 60424 45000.00000 0 14977038.533 7113019.494 -19348757.629 10 0 60424 45900.00000 0 16305416.765 8962439.876 -17410118.854 10 0 60424 46800.00000 0 17608618.168 10502612.029 -15132264.298 10 0 60424 47700.00000 0 18825139.703 11717478.072 -12559591.299 10 0 60424 48600.00000 0 19893567.593 12604021.960 -9742250.390 10 0 60424 49500.00000 0 20755219.895 13172132.048 -6735157.502 10 0 60424 50400.00000 0 21356691.667 13443923.893 -3596911.976 10 0 60424 51300.00000 0 21652194.317 13452553.734 -388642.622 10 0 60424 52200.00000 0 21605589.623 13240574.877 2827194.450 10 0 60424 53100.00000 0 21192032.031 12857908.561 5988041.462 10 0 60424 54000.00000 0 20399149.832 12359517.216 9032463.081 10 0 60424 54900.00000 0 19227715.619 11802880.251 11901344.276 10 0 60424 55800.00000 0 17691778.306 11245380.543 14539038.081 10 0 60424 56700.00000 0 15818251.840 10741712.916 16894440.884 10 0 60424 57600.00000 0 13645978.599 10341424.400 18921974.779 10 0 60424 58500.00000 0 11224307.344 10086689.796 20582458.732 10 0 60424 59400.00000 0 8611245.554 10010415.618 21843852.922 10 0 60424 60300.00000 0 5871263.171 10134751.214 22681863.310 10 0 60424 61200.00000 0 3072838.797 10470068.497 23080396.301 10 0 60424 62100.00000 0 285849.376 11014452.042 23031856.233 10 0 60424 63000.00000 0 -2421089.654 11753720.052 22537281.243 10 0 60424 63900.00000 0 -4983225.137 12661974.791 21606315.844 10 0 60424 64800.00000 0 -7342102.036 13702659.329 20257021.302 10 0 60424 65700.00000 0 -9447735.444 14830076.728 18515527.532 10 0 60424 66600.00000 0 -11260430.575 15991308.789 16415532.890 10 0 60424 67500.00000 0 -12752176.993 17128455.066 13997660.771 10 0 60424 68400.00000 0 -13907560.573 18181099.513 11308684.391 10 0 60424 69300.00000 0 -14724156.284 19088902.508 8400633.579 10 0 60424 70200.00000 0 -15212386.149 19794210.497 5329799.586 10 0 60424 71100.00000 0 -15394848.637 20244574.314 2155656.024 10 0 60424 72000.00000 0 -15305147.636 20395070.574 -1060284.131 10 0 60424 72900.00000 0 -14986269.964 20210328.252 -4255654.053 10 0 60424 73800.00000 0 -14488579.365 19666174.427 -7368438.581 10 0 60424 74700.00000 0 -13867511.137 18750828.666 -10338176.488 10 0 60424 75600.00000 0 -13181064.370 17465594.178 -13107136.105 10 0 60424 76500.00000 0 -12487197.541 15825014.710 -15621441.193 10 0 60424 77400.00000 0 -11841237.566 13856488.479 -17832124.740 10 0 60424 78300.00000 0 -11293412.144 11599353.205 -19696089.658 10 0 60424 79200.00000 0 -10886610.200 9103478.540 -21176957.115 10 0 60424 80100.00000 0 -10654465.924 6427423.008 -22245785.312 10 0 60424 81000.00000 0 -10619848.264 3636231.027 -22881644.065 10 0 60424 81900.00000 0 -10793820.818 798960.843 -23072033.332 10 0 60424 82800.00000 0 -11175117.172 -2013954.189 -22813136.805 10 0 60424 83700.00000 0 -11750154.907 -4733401.342 -22109904.978 10 0 60424 84600.00000 0 -12493588.654 -7294229.028 -20975965.411 10 0 60424 85500.00000 0 -13369379.530 -9637721.866 -19433361.366 10 0 60425 0.00000 0 -14332336.138 -11713806.743 -17512123.674 10 0 60425 900.00000 0 -15330062.622 -13482898.786 -15249682.815 10 0 60425 1800.00000 0 -16305229.834 -14917307.452 -12690135.342 10 0 60425 2700.00000 0 -17198074.736 -16002148.038 -9883375.826 10 0 60425 3600.00000 0 -17949020.152 -16735718.426 -6884114.306 10 0 60425 4500.00000 0 -18501303.521 -17129327.640 -3750798.359 10 0 60425 5400.00000 0 -18803502.313 -17206584.921 -544462.111 10 0 60425 6300.00000 0 -18811848.309 -17002181.247 2672474.183 10 0 60425 7200.00000 0 -18492232.130 -16560216.809 5837429.212 10 0 60425 8100.00000 0 -17821812.907 -15932147.236 8888885.377 10 0 60425 9000.00000 0 -16790164.997 -15174437.229 11767588.471 10 0 60425 9900.00000 0 -15399913.633 -14346022.346 14417698.369 10 0 60425 10800.00000 0 -13666833.171 -13505687.233 16787868.290 10 0 60425 11700.00000 0 -11619404.352 -12709471.465 18832232.047 10 0 60425 12600.00000 0 -9297849.676 -12008212.324 20511280.933 10 0 60425 13500.00000 0 -6752687.551 -11445327.408 21792614.498 10 0 60425 14400.00000 0 -4042865.616 -11054929.279 22651552.113 10 0 60425 15300.00000 0 -1233550.642 -10860350.070 23071595.077 10 0 60425 16200.00000 0 1606333.898 -10873136.546 23044731.841 10 0 60425 17100.00000 0 4406721.596 -11092556.450 22571581.789 10 0 60425 18000.00000 0 7099061.365 -11505635.741 21661375.741 10 0 60425 18900.00000 0 9618911.852 -12087724.520 20331774.167 10 0 60425 19800.00000 0 11908366.472 -12803567.702 18608526.661 10 0 60425 20700.00000 0 13918210.395 -13608835.806 16524978.949 10 0 60425 21600.00000 0 15609721.803 -14452052.332 14121436.198 10 0 60425 22500.00000 0 16956044.041 -15276837.785 11444393.904 10 0 60425 23400.00000 0 17943072.714 -16024377.133 8545650.032 10 0 60425 24300.00000 0 18569821.487 -16636008.048 5481314.377 10 0 60425 25200.00000 0 18848251.719 -17055821.809 2310733.086 10 0 60425 26100.00000 0 18802573.062 -17233167.836 -904651.722 10 0 60425 27000.00000 0 18468044.155 -17124956.350 -4102485.960 10 0 60425 27900.00000 0 17889323.404 -16697661.617 -7220708.677 10 0 60425 28800.00000 0 17118438.733 -15928940.289 -10198755.072 10 0 60425 29700.00000 0 16212461.445 -14808795.197 -12978733.999 10 0 60425 30600.00000 0 15230981.855 -13340233.656 -15506556.832 10 0 60425 31500.00000 0 14233493.090 -11539390.441 -17732995.303 10 0 60425 32400.00000 0 13276793.476 -9435107.958 -19614647.209 10 0 60425 33300.00000 0 12412517.404 -7067988.936 -21114790.621 10 0 60425 34200.00000 0 11684899.384 -4488959.212 -22204109.291 10 0 60425 35100.00000 0 11128866.250 -1757398.868 -22861274.505 10 0 60425 36000.00000 0 10768538.806 1061081.699 -23073371.358 10 0 60425 36900.00000 0 10616206.908 3897129.012 -22836160.461 10 0 60425 37800.00000 0 10671822.013 6680293.999 -22154169.299 10 0 60425 38700.00000 0 10923029.267 9341729.682 -21040610.829 10 0 60425 39600.00000 0 11345738.241 11816826.548 -19517130.302 10 0 60425 40500.00000 0 11905208.424 14047675.540 -17613384.837 10 0 60425 41400.00000 0 12557603.523 15985255.634 -15366463.624 10 0 60425 42300.00000 0 13251948.411 17591254.442 -12820160.110 10 0 60425 43200.00000 0 13932405.227 18839445.799 -10024110.610 10 0 60425 44100.00000 0 14540771.302 19716567.055 -7032816.711 10 0 60425 45000.00000 0 15019091.967 20222660.129 -3904571.459 10 0 60425 45900.00000 0 15312276.362 20370863.293 -700311.359 10 0 60425 46800.00000 0 15370604.336 20186664.137 2517582.193 10 0 60425 47700.00000 0 15152017.294 19706647.137 5686507.341 10 0 60425 48600.00000 0 14624095.366 18976790.715 8744867.100 10 0 60425 49500.00000 0 13765636.964 18050387.619 11633270.780 10 0 60425 50400.00000 0 12567773.931 16985678.129 14295687.568 10 0 60425 51300.00000 0 11034575.551 15843297.243 16680529.714 10 0 60425 52200.00000 0 9183116.319 14683644.223 18741644.671 10 0 60425 53100.00000 0 7043005.077 13564285.476 20439197.702 10 0 60425 54000.00000 0 4655395.517 12537499.596 21740429.057 10 0 60425 54900.00000 0 2071519.472 11648066.765 22620272.533 10 0 60425 55800.00000 0 -649196.115 10931393.915 23061824.974 10 0 60425 56700.00000 0 -3441350.846 10412052.677 23056659.205 10 0 60425 57600.00000 0 -6236039.945 10102789.673 22604975.669 10 0 60425 58500.00000 0 -8963469.696 10004049.113 21715590.834 10 0 60425 59400.00000 0 -11555612.532 10104026.432 20405763.208 10 0 60425 60300.00000 0 -13948793.597 10379249.927 18700860.404 10 0 60425 61200.00000 0 -16086103.355 10795665.671 16633873.395 10 0 60425 62100.00000 0 -17919537.936 11310180.341 14244786.610 10 0 60425 63000.00000 0 -19411779.803 11872597.730 11579815.000 10 0 60425 63900.00000 0 -20537545.798 12427868.330 8690521.656 10 0 60425 64800.00000 0 -21284447.194 12918558.253 5632831.800 10 0 60425 65700.00000 0 -21653326.195 13287434.360 2465961.009 10 0 60425 66600.00000 0 -21658054.829 13480057.194 -748722.521 10 0 60425 67500.00000 0 -21324804.342 13447272.595 -3948880.390 10 0 60425 68400.00000 0 -20690815.274 13147496.603 -7072408.678 10 0 60425 69300.00000 0 -19802719.251 12548696.465 -10058641.663 10 0 60425 70200.00000 0 -18714482.507 11629982.901 -12849531.169 10 0 60425 71100.00000 0 -17485057.133 10382744.777 -15390778.378 10 0 60425 72000.00000 0 -16175838.631 8811276.299 -17632895.651 10 0 60425 72900.00000 0 -14848036.665 6932868.038 -19532177.191 10 0 60425 73800.00000 0 -13560069.797 4777355.529 -21051559.101 10 0 60425 74700.00000 0 -12365094.170 2386142.064 -22161351.388 10 0 60425 75600.00000 0 -11308770.634 -189265.556 -22839827.079 10 0 60425 76500.00000 0 -10427364.812 -2889148.914 -23073656.256 10 0 60425 77400.00000 0 -9746260.714 -5647819.866 -22858175.870 10 0 60425 78300.00000 0 -9278950.987 -8396119.867 -22197489.421 10 0 60425 79200.00000 0 -9026546.792 -11064073.009 -21104393.900 10 0 60425 80100.00000 0 -8977828.183 -13583582.251 -19600134.835 10 0 60425 81000.00000 0 -9109832.878 -15891056.208 -17713993.791 10 0 60425 81900.00000 0 -9388958.243 -17929856.555 -15482716.054 10 0 60425 82800.00000 0 -9772529.369 -19652463.409 -12949789.671 10 0 60425 83700.00000 0 -10210765.991 -21022267.891 -10164590.154 10 0 60425 84600.00000 0 -10649063.871 -22014916.881 -7181408.075 10 0 60425 85500.00000 0 -11030492.696 -22619153.927 -4058379.406 10 0 60426 0.00000 0 -11298403.200 -22837121.887 -856340.849 10 0 60426 900.00000 0 -11399031.808 -22684115.878 2362368.020 10 0 60426 1800.00000 0 -11283990.846 -22187798.381 5535126.826 10 0 60426 2700.00000 0 -10912538.421 -21386911.817 8600261.417 10 0 60426 3600.00000 0 -10253530.863 -20329544.395 11498246.761 10 0 60426 4500.00000 0 -9286975.084 -19071024.322 14172863.373 10 0 60426 5400.00000 0 -8005115.318 -17671532.515 16572284.402 10 0 60426 6300.00000 0 -6413008.721 -16193535.336 18650072.607 10 0 60426 7200.00000 0 -4528565.929 -14699145.767 20366068.622 10 0 60426 8100.00000 0 -2382055.214 -13247523.687 21687154.512 10 0 60426 9000.00000 0 -15091.068 -11892423.536 22587879.273 10 0 60426 9900.00000 0 2520850.692 -10679990.866 23050935.740 10 0 60426 10800.00000 0 5166329.945 -9646898.354 23067481.214 10 0 60426 11700.00000 0 7856173.468 -8818897.398 22637296.989 10 0 60426 12600.00000 0 10521948.855 -8209844.015 21768784.672 10 0 60426 13500.00000 0 13094580.097 -7821238.107 20478800.024 10 0 60426 14400.00000 0 15506998.074 -7642293.990 18792327.634 10 0 60426 15300.00000 0 17696717.785 -7650538.369 16742002.415 10 0 60426 16200.00000 0 19608237.037 -7812910.228 14367486.480 10 0 60426 17100.00000 0 21195158.464 -8087316.536 11714712.372 10 0 60426 18000.00000 0 22421947.700 -8424578.806 8835006.151 10 0 60426 18900.00000 0 23265255.254 -8770689.242 5784106.009 10 0 60426 19800.00000 0 23714747.279 -9069282.178 2621094.226 10 0 60426 20700.00000 0 23773410.450 -9264217.189 -592737.836 10 0 60426 21600.00000 0 23457317.821 -9302165.247 -3795070.501 10 0 60426 22500.00000 0 22794864.845 -9135088.684 -6923759.912 10 0 60426 23400.00000 0 21825506.837 -8722509.753 -9918042.355 10 0 60426 24300.00000 0 20598050.101 -8033470.991 -12719715.356 10 0 60426 25200.00000 0 19168567.791 -7048103.185 -15274272.378 10 0 60426 26100.00000 0 17598027.502 -5758732.926 -17531968.579 10 0 60426 27000.00000 0 15949729.918 -4170480.882 -19448796.430 10 0 60426 27900.00000 0 14286665.995 -2301323.235 -20987351.583 10 0 60426 28800.00000 0 12668903.784 -181611.268 -22117571.498 10 0 60426 29700.00000 0 11151114.873 2146933.060 -22817331.782 10 0 60426 30600.00000 0 9780344.729 4632705.596 -23072887.978 10 0 60426 31500.00000 0 8594120.977 7216131.938 -22879153.483 10 0 60426 32400.00000 0 7618979.492 9831924.248 -22239807.532 10 0 60426 33300.00000 0 6869470.501 12411589.504 -21167230.484 10 0 60426 34200.00000 0 6347686.598 14886084.807 -19682267.107 10 0 60426 35100.00000 0 6043332.376 17188508.827 -17813822.009 10 0 60426 36000.00000 0 5934332.301 19256716.676 -15598294.817 10 0 60426 36900.00000 0 5987950.399 21035748.348 -13078866.086 10 0 60426 37800.00000 0 6162373.418 22479968.689 -10304648.119 10 0 60426 38700.00000 0 6408689.164 23554828.915 -7329717.775 10 0 60426 39600.00000 0 6673174.768 24238175.772 -4212051.029 10 0 60426 40500.00000 0 6899796.309 24521053.770 -1012381.116 10 0 60426 41400.00000 0 7032812.287 24407967.565 2206996.225 10 0 60426 42300.00000 0 7019369.102 23916594.704 5383445.810 10 0 60426 43200.00000 0 6811977.391 23076962.369 8455219.359 10 0 60426 44100.00000 0 6370763.426 21930124.513 11362660.334 10 0 60426 45000.00000 0 5665399.851 20526396.826 14049363.170 10 0 60426 45900.00000 0 4676633.994 18923225.338 16463264.220 10 0 60426 46800.00000 0 3397349.414 17182779.442 18557643.542 10 0 60426 47700.00000 0 1833116.295 15369371.092 20292018.825 10 0 60426 48600.00000 0 2207.894 13546808.532 21632915.309 10 0 60426 49500.00000 0 -2064917.449 11775794.820 22554498.217 10 0 60426 50400.00000 0 -4326647.047 10111478.914 23039057.033 10 0 60426 51300.00000 0 -6731714.689 8601260.082 23077333.809 10 0 60426 52200.00000 0 -9221109.753 7282935.386 22668690.520 10 0 60426 53100.00000 0 -11730316.244 6183265.595 21821113.277 10 0 60426 54000.00000 0 -14191790.113 5317017.344 20551053.966 10 0 60426 54900.00000 0 -16537573.643 4686519.797 18883112.519 10 0 60426 55800.00000 0 -18701939.970 4281752.948 16849565.676 10 0 60426 56700.00000 0 -20623959.586 4080962.882 14489750.687 10 0 60426 57600.00000 0 -22249883.610 4051777.760 11849314.794 10 0 60426 58500.00000 0 -23535245.759 4152777.624 8979343.866 10 0 60426 59400.00000 0 -24446596.241 4335452.352 5935385.767 10 0 60426 60300.00000 0 -24962795.545 4546465.825 2776386.132 10 0 60426 61200.00000 0 -25075813.954 4730131.421 -436443.833 10 0 60426 62100.00000 0 -24791002.866 4830994.772 -3640806.393 10 0 60426 63000.00000 0 -24126825.796 4796414.867 -6774520.834 10 0 60426 63900.00000 0 -23114059.335 4579034.209 -9776728.351 10 0 60426 64800.00000 0 -21794496.595 4139032.971 -12589074.863 10 0 60426 65700.00000 0 -20219206.519 3446070.763 -15156848.528 10 0 60426 66600.00000 0 -18446421.271 2480832.455 -17430049.396 10 0 60426 67500.00000 0 -16539139.675 1236110.888 -19364369.884 10 0 60426 68400.00000 0 -14562546.821 -282621.357 -20922066.411 10 0 60426 69300.00000 0 -12581357.854 -2057177.585 -22072704.571 10 0 60426 70200.00000 0 -10657197.321 -4057163.763 -22793762.696 10 0 60426 71100.00000 0 -8846124.066 -6241007.441 -23071081.386 10 0 60426 72000.00000 0 -7196405.700 -8557467.594 -22899149.557 10 0 60426 72900.00000 0 -5746636.175 -10947563.717 -22281220.772 10 0 60426 73800.00000 0 -4524275.594 -13346844.583 -21229256.939 10 0 60426 74700.00000 0 -3544673.559 -15687902.347 -19763699.881 10 0 60426 75600.00000 0 -2810616.866 -17903027.023 -17913074.784 10 0 60426 76500.00000 0 -2312420.034 -19926890.078 -15713432.938 10 0 60426 77400.00000 0 -2028554.048 -21699144.288 -13207644.610 10 0 60426 78300.00000 0 -1926785.615 -23166830.343 -10444556.053 10 0 60426 79200.00000 0 -1965777.369 -24286488.727 -7478027.613 10 0 60426 80100.00000 0 -2097079.698 -25025887.824 -4365872.556 10 0 60426 81000.00000 0 -2267428.055 -25365295.615 -1168718.370 10 0 60426 81900.00000 0 -2421246.635 -25298241.818 2051186.027 10 0 60426 82800.00000 0 -2503250.599 -24831739.184 5231192.593 10 0 60426 83700.00000 0 -2461035.112 -23985955.789 8309480.990 10 0 60426 84600.00000 0 -2247540.372 -22793353.538 11226265.076 10 0 60426 85500.00000 0 -1823287.525 -21297330.676 13924954.933 99